Warsaw, Poland

2:06 PM CEST on September 22, 2017 (GMT +0200)
Okecie

Weather History for EPWA - December, 2012

Change the Weather History Date:

Friday, December 28, 2012

  Actual Average Record
Temperature  
Mean Temperature 30 °F -  
Max Temperature 35 °F 31 °F 50 °F (1998)
Min Temperature 24 °F 21 °F -4 °F (1996)
Degree Days  
Heating Degree Days 36    
Moisture  
Dew Point 26 °F    
Average Humidity 75    
Maximum Humidity 93    
Minimum Humidity 51    
Precipitation  
Precipitation 0.00 in 0.03 in - ()
Sea Level Pressure  
Sea Level Pressure 30.11 in    
Wind  
Wind Speed 10 mph ()    
Max Wind Speed 21 mph    
Max Gust Speed -    
Visibility 8.7 miles    
Events      
Averages and records for this station are not official NWS values.
T = Trace of Precipitation, MM = Missing Value Source: Averaged Metar Reports

Daily Weather History Graph

Daily Weather History Graph

Search for Another Location

Airport or City:

Trip Planner

Search our weather history database for the weather conditions in past years. The results will help you decide how hot, cold, wet, or windy it might be!

Date:

Astronomy

Dec. 28, 2012 Rise Set
Actual Time 7:45 AM CET 3:30 PM CET
Civil Twilight 7:04 AM CET 4:11 PM CET
Nautical Twilight 6:20 AM CET 4:55 PM CET
Astronomical Twilight 5:38 AM CET 5:36 PM CET
Moon 3:57 PM CET (12/28) 7:20 AM CET (12/28)
Length of Visible Light 9h 07m
Length of Day
7h 45m
Full, 100% of the Moon is Illuminated
Dec 28
Full
Jan 5
Last Quarter
Jan 11
New
Jan 19
First Quarter
Jan 27
Full

Hourly Weather History & Observations

Time (CET) Temp. Windchill Dew Point Humidity Pressure Visibility Wind Dir Wind Speed Gust Speed Precip Events Conditions
12:00 AM 41.0 °F 36.4 °F 35.6 °F 81% 29.68 in 6.2 mi SW 6.9 mph - N/A   Mostly Cloudy
12:30 AM 41.0 °F 36.4 °F 35.6 °F 81% 29.71 in 6.2 mi SW 6.9 mph - N/A   Scattered Clouds
1:00 AM 41 °F - 34 °F 68% 29.74 in 12 mi SW 6.7 mph - -   Partly Cloudy
1:00 AM 41.0 °F 36.4 °F 35.6 °F 81% 29.71 in - SW 6.9 mph - N/A   Clear
1:30 AM 41.0 °F 35.8 °F 35.6 °F 81% 29.74 in 6.2 mi WSW 8.1 mph - N/A   Scattered Clouds
2:00 AM 41.0 °F 34.3 °F 35.6 °F 81% 29.74 in 6.2 mi West 11.5 mph - N/A   Scattered Clouds
2:30 AM 39.2 °F 33.0 °F 33.8 °F 81% 29.74 in 6.2 mi West 9.2 mph - N/A   Scattered Clouds
3:00 AM 39.2 °F 32.0 °F 33.8 °F 81% 29.77 in 6.2 mi West 11.5 mph - N/A   Mostly Cloudy
3:30 AM 39.2 °F 31.2 °F 35.6 °F 87% 29.77 in 6.2 mi West 13.8 mph - N/A   Mostly Cloudy
4:00 AM 39 °F - 34 °F 76% 29.82 in 9 mi West 11.2 mph - -   Mostly Cloudy
4:00 AM 39.2 °F 31.6 °F 35.6 °F 87% 29.80 in 6.2 mi West 12.7 mph - N/A   Mostly Cloudy
4:30 AM 37.4 °F 30.3 °F 33.8 °F 87% 29.80 in 6.2 mi WNW 10.4 mph - N/A   Mostly Cloudy
5:00 AM 37.4 °F 30.3 °F 33.8 °F 87% 29.83 in 6.2 mi WNW 10.4 mph - N/A   Mostly Cloudy
5:30 AM 37.4 °F 29.8 °F 33.8 °F 87% 29.86 in 6.2 mi WNW 11.5 mph - N/A   Mostly Cloudy
6:00 AM 37.4 °F 28.2 °F 32.0 °F 81% 29.86 in 6.2 mi NW 16.1 mph - N/A   Mostly Cloudy
6:30 AM 35.6 °F 24.5 °F 28.4 °F 75% 29.89 in 6.2 mi NNW 20.7 mph - N/A   Mostly Cloudy
7:00 AM 35 °F - 29 °F 69% 29.95 in 19 mi WNW 17.9 mph - -   Mostly Cloudy
7:00 AM 35.6 °F 24.8 °F 28.4 °F 75% 29.92 in 6.2 mi NW 19.6 mph - N/A   Mostly Cloudy
7:30 AM 33.8 °F 23.2 °F 28.4 °F 81% 29.95 in 6.2 mi NW 17.3 mph - N/A   Scattered Clouds
8:00 AM 32.0 °F 20.8 °F 23.0 °F 69% 29.98 in 6.2 mi NW 17.3 mph - N/A   Partly Cloudy
8:30 AM 32.0 °F 22.5 °F 23.0 °F 69% 30.01 in 6.2 mi NW 12.7 mph - N/A   Partly Cloudy
9:00 AM 32.0 °F 21.6 °F 24.8 °F 75% 30.04 in - NW 15.0 mph - N/A   Clear
9:30 AM 32.0 °F 22.1 °F 23.0 °F 69% 30.06 in - NW 13.8 mph - N/A   Clear
10:00 AM 33 °F - 24 °F 57% 30.14 in 19 mi WNW 13.4 mph - -   Clear
10:00 AM 32.0 °F 22.1 °F 24.8 °F 75% 30.09 in - NW 13.8 mph - N/A   Clear
10:30 AM 33.8 °F 24.3 °F 24.8 °F 70% 30.12 in - NW 13.8 mph - N/A   Clear
11:00 AM 33.8 °F 23.5 °F 24.8 °F 70% 30.15 in 6.2 mi NW 16.1 mph - N/A   Partly Cloudy
11:30 AM 33.8 °F 23.2 °F 23.0 °F 65% 30.18 in 6.2 mi NW 17.3 mph - N/A   Partly Cloudy
12:00 PM 33.8 °F 23.9 °F 23.0 °F 65% 30.18 in 6.2 mi NW 15.0 mph - N/A   Partly Cloudy
12:30 PM 33.8 °F 25.3 °F 23.0 °F 65% 30.21 in 6.2 mi NW 11.5 mph - N/A   Partly Cloudy
1:00 PM 34 °F - 22 °F 51% 30.25 in 19 mi West 13.4 mph - -   Scattered Clouds
1:00 PM 33.8 °F 24.8 °F 24.8 °F 70% 30.21 in 6.2 mi WNW 12.7 mph - N/A   Partly Cloudy
1:30 PM 33.8 °F 25.3 °F 21.2 °F 60% 30.21 in 6.2 mi WNW 11.5 mph - N/A   Partly Cloudy
2:00 PM 33.8 °F 25.3 °F 21.2 °F 60% 30.24 in - WNW 11.5 mph - N/A   Clear
2:30 PM 32.0 °F 24.2 °F 21.2 °F 64% 30.24 in - WNW 9.2 mph - N/A   Clear
3:00 PM 32.0 °F 24.2 °F 21.2 °F 64% 30.24 in - West 9.2 mph - N/A   Clear
3:30 PM 32.0 °F 25.6 °F 21.2 °F 64% 30.27 in - West 6.9 mph - N/A   Clear
4:00 PM 31 °F - 22 °F 59% 30.32 in 19 mi West 8.9 mph - -   Clear
4:00 PM 30.2 °F 21.9 °F 23.0 °F 75% 30.27 in - West 9.2 mph - N/A   Clear
4:30 PM 30.2 °F 21.3 °F 23.0 °F 75% 30.30 in - West 10.4 mph - N/A   Clear
5:00 PM 30.2 °F 21.3 °F 23.0 °F 75% 30.33 in - West 10.4 mph - N/A   Clear
5:30 PM 30.2 °F 21.3 °F 23.0 °F 75% 30.33 in - West 10.4 mph - N/A   Clear
6:00 PM 30.2 °F 22.6 °F 23.0 °F 75% 30.33 in - West 8.1 mph - N/A   Clear
6:30 PM 28.4 °F 21.2 °F 23.0 °F 80% 30.36 in - West 6.9 mph - N/A   Clear
7:00 PM 29 °F - 22 °F 68% 30.40 in 19 mi WSW 6.7 mph - -  
7:00 PM 28.4 °F 20.4 °F 23.0 °F 80% 30.36 in - West 8.1 mph - N/A   Clear
7:30 PM 28.4 °F 20.4 °F 23.0 °F 80% 30.39 in - West 8.1 mph - N/A   Clear
8:00 PM 28.4 °F 21.2 °F 23.0 °F 80% 30.39 in - West 6.9 mph - N/A   Clear
8:30 PM 28.4 °F 20.4 °F 23.0 °F 80% 30.39 in - West 8.1 mph - N/A   Clear
9:00 PM 28.4 °F 21.2 °F 23.0 °F 80% 30.39 in - West 6.9 mph - N/A   Clear
9:30 PM 26.6 °F 19.1 °F 23.0 °F 86% 30.39 in - West 6.9 mph - N/A   Clear
10:00 PM 27 °F - 23 °F 78% 30.45 in 12 mi WSW 2.2 mph - -  
10:00 PM 26.6 °F 21.2 °F 23.0 °F 86% 30.42 in - West 4.6 mph - N/A   Clear
10:30 PM 26.6 °F 20.0 °F 23.0 °F 86% 30.42 in - WSW 5.8 mph - N/A   Clear
11:00 PM 24.8 °F 17.9 °F 23.0 °F 93% 30.42 in - WSW 5.8 mph - N/A   Clear
11:30 PM 24.8 °F 17.9 °F 23.0 °F 93% 30.42 in - SW 5.8 mph - N/A   Clear